Regional Weather Roundup
Issued by NWS

Home | Current Version | Previous Version | Text Only | Print | Product List | Glossary On
Versions: 1 2 3 4 5 6 7 8 9 10 11 12 13 14 15 16 17 18 19 20 21 22 23 24 25 26 27 28 29 30 31 32 33 34 35 36 37 38 39 40 41 42 43 44 45 46 47 48 49 50
000
ASUS42 KFFC 231610
RWRGA
WEATHER ROUNDUP FOR GEORGIA
NATIONAL WEATHER SERVICE PEACHTREE CITY GA
1200 PM EDT WED MAY 23 2018

NOTE: "FAIR" INDICATES FEW OR NO CLOUDS BELOW 12,000 FEET WITH NO
SIGNIFICANT WEATHER AND/OR OBSTRUCTIONS TO VISIBILITY.

* = USE WITH CAUTION. THE STATIONS MARKED WITH AN ASTERISK MAY NOT
REPORT WEATHER SUCH AS PRECIPITATION, FOG, OR THUNDER AND ARE NOT
QUALITY CONTROLLED BY NWS.

THE REMARK "TC" DENOTES TEMPERATURE READING IN DEGREES CELSIUS.

GAZ001>058-231700-
NORTH GEORGIA

CITY           SKY/WX    TMP DP  RH WIND       PRES   REMARKS
ATLANTA        PTSUNNY   77  68  73 NE7       30.11S
ATHENS         LGT RAIN  72  71  97 E5        30.13R
CHAMBLEE       CLOUDY    73  68  84 NE5       30.11S
PEACHTREE CITY CLOUDY    77  70  79 W7        30.11S
ROME           CLOUDY    80  70  71 VRB5      30.10S
WEST ATLANTA   CLOUDY    75  71  87 N5        30.11S
GAINESVILLE    CLOUDY    73  70  90 E6        30.14S
CARTERSVILLE   CLOUDY    77  68  73 CALM      30.12S


CITY           SKY/WX    TMP DP  RH WIND       PRES   REMARKS
DALTON*        FAIR      79  68  69 N3        30.13S
LAWRENCEVILLE* LGT RAIN  70  70 100 E7        30.12S
MARIETTA       PTSUNNY   74  69  85 NE5       30.12R
KENNESAW*      PTSUNNY   75  68  78 NW3       30.13R
CANTON*        FAIR      79  64  61 CALM      30.13F
BLAIRSVILLE*   FAIR      76  67  73 NW3       30.16S
$$

GAZ059>098-102>109-231700-
CENTRAL GEORGIA

CITY           SKY/WX    TMP DP  RH WIND       PRES   REMARKS
AUGUSTA-BUSH   PTSUNNY   80  71  74 S9        30.11S
AUGUSTA-DANIEL PTSUNNY   79  71  76 S3        30.13S
COLUMBUS       LGT RAIN  72  70  93 CALM      30.09F
MACON          LGT RAIN  72  70  93 SW6       30.11S
ROBINS AFB     LGT RAIN  73  71  93 W5        30.10S


CITY           SKY/WX    TMP DP  RH WIND       PRES   REMARKS
LAGRANGE*      PTSUNNY   81  73  75 CALM      30.11S
SYLVANIA*      FAIR      83  71  67 S5        30.13S
MILLEDGEVILLE* CLOUDY    77  73  88 CALM      30.11S
$$

GAZ099>101-110>166-231700-
SOUTH GEORGIA

CITY           SKY/WX    TMP DP  RH WIND       PRES   REMARKS
SAVANNAH       PTSUNNY   84  68  58 SW12      30.13S
VALDOSTA       LGT RAIN  73  71  93 SE3       30.13F
ALMA           FAIR      82  69  64 S6        30.12F
ST SIMONS      FAIR      82  72  71 SE13      30.13S
FT STEWART     PTSUNNY   82  68  63 SW6       30.11F
ALBANY         PTSUNNY   82  70  66 W12       30.12S
HUNTER AFB     FAIR      83  69  60 SW6       30.10F
MOODY AFB      HVY RAIN  72  70  94 CALM      30.12F FOG
BRUNSWICK      PTSUNNY   82  68  61 S3        30.14S


CITY           SKY/WX    TMP DP  RH WIND       PRES   REMARKS
BAINBRIDGE*    FAIR      82  75  78 W3        30.11S
MOULTRIE*      FAIR      81  70  69 S5        30.12F
VIDALIA*       PTSUNNY   79  70  73 W3        30.12F
WAYCROSS*      CLOUDY    83  70  66 W6        30.13S
DOUGLAS*       PTSUNNY   79  70  73 SW3       30.14F
$$




USA.gov is the U.S. government's official web portal to all federal, state and local government web resources and services.